Regional Weather Roundup
Issued by NWS

Home | Current Version | Previous Version | Text Only | Print | Product List | Glossary Off
Versions: 1 2 3 4 5 6 7 8 9 10 11 12 13 14 15 16 17 18 19 20 21 22 23 24 25 26 27 28 29 30 31 32 33 34 35 36 37 38 39 40 41 42 43 44 45 46 47 48 49 50

000
ASUS43 KOAX 270910
RWRNE

WEATHER ROUNDUP FOR NEBRASKA
NATIONAL WEATHER SERVICE OMAHA NE
300 AM CST FRI FEB 27 2015

NOTES: SATELLITE DATA IS BEING USED TO AUGMENT CLOUD COVER ABOVE
       12000 FEET.
       "FAIR" INDICATES FEW OR NO CLOUDS BELOW 12,000 FEET WITH NO
       SIGNIFICANT WEATHER AND/OR OBSTRUCTIONS TO VISIBILITY.

  * THESE STATIONS DO NOT REPORT WEATHER SUCH AS RAIN...SNOW OR FOG.

NEZ001>004-019>022-054>056-271000-
NEBRASKA PANHANDLE

CITY           SKY/WX    TMP DP  RH WIND       PRES   REMARKS
SCOTTSBLUFF    CLOUDY     8   0  69 SE16      30.24F WCI -10
ALLIANCE       CLEAR      0  -5  79 SE7       30.26F WCI -13
CHADRON        CLEAR     -8 -13  78 CALM      30.31F
KIMBALL        MOCLDY     3  -1  83 SE10      30.13F WCI -12
SIDNEY         CLOUDY     4  -4  69 SE10      30.23F WCI -11
$$

NEZ057>060-069>072-079>082-271000-
SOUTHWEST NEBRASKA

CITY           SKY/WX    TMP DP  RH WIND       PRES   REMARKS
NORTH PLATTE   CLEAR     -3  -8  79 CALM      30.42F
IMPERIAL         N/A      7  -4  60 SE9       30.35F WCI  -7
LEXINGTON      CLEAR      0  -5  79 CALM      30.46F
MCCOOK         CLOUDY     9  -2  61 E7        30.44F WCI  -2
OGALLALA       CLEAR      4  -3  75 E5        30.36S WCI  -6
$$

NEZ005>010-023>029-035>040-094-271000-
NORTH CENTRAL NEBRASKA

CITY           SKY/WX    TMP DP  RH WIND       PRES   REMARKS
VALENTINE      CLEAR     -6 -11  79 CALM      30.43S
AINSWORTH      CLEAR     -4  -9  80 SW5       30.43F WCI -15
BROKEN BOW     CLEAR     -6 -13  71 CALM      30.44F
O`NEILL        CLEAR     -3  -7  84 W5        30.49F WCI -14
ORD            CLEAR     -6 -12  75 CALM      30.50R
THEDFORD       CLEAR     -2  -7  80 CALM      30.40F
$$

NEZ041-046>049-061>064-073>077-083>087-271000-
SOUTH CENTRAL NEBRASKA

CITY           SKY/WX    TMP DP  RH WIND       PRES   REMARKS
GRAND ISLAND   CLEAR     -1  -7  75 NW3       30.53F
AURORA         CLEAR     -3  -8  77 N6        30.53F WCI -15
HASTINGS       CLEAR     -1  -7  75 CALM      30.50F
HEBRON         FAIR       0  -5  79 CALM      30.56F
HOLDREGE       CLEAR     -1  -7  73 CALM      30.47F
KEARNEY *      CLEAR      0  -9  65 CALM      30.48F
YORK             N/A     -2  -8  78 NW5       30.55S WCI -12
$$

NEZ011>018-030>034-042>045-271000-
NORTHEAST NEBRASKA

CITY           SKY/WX    TMP DP  RH WIND       PRES   REMARKS
NORFOLK        CLEAR     -5  -9  83 W6        30.54S WCI -18
ALBION         CLEAR     -7 -14  72 CALM      30.53S
BLAIR          CLEAR     -1  -7  77 W3        30.56S
COLUMBUS *     CLEAR     -6 -18  54 CALM      30.57S
FREMONT        CLEAR     -1  -7  78 W6        30.59R WCI -13
TEKAMAH        CLEAR     -2  -8  76 W3        30.61R
WAYNE          CLEAR     -9 -14  78 CALM      30.56S
$$

NEZ050>053-065>068-078-088>093-271000-
SOUTHEAST NEBRASKA

CITY           SKY/WX    TMP DP  RH WIND       PRES   REMARKS
LINCOLN        CLEAR     -2  -6  83 N5        30.60S WCI -12
OMAHA EPPLEY   CLEAR      2  -4  76 CALM      30.61S
BEATRICE       CLEAR     -2  -6  83 CALM      30.57F
FALLS CITY     CLEAR     -2  -7  79 CALM      30.60S
NEBRASKA CITY  CLEAR      0  -6  74 NW6       30.58S WCI -11
PLATTSMOUTH    CLEAR     -1  -6  78 NW3       30.58S
$$

NEZ044-045-051>053-067-271000-
OMAHA AREA

CITY           SKY/WX    TMP DP  RH WIND       PRES   REMARKS
OMAHA EPPLEY   CLEAR      2  -4  76 CALM      30.61S
BLAIR          CLEAR     -1  -7  77 W3        30.56S
FREMONT        CLEAR     -1  -7  78 W6        30.59R WCI -13
MILLARD        CLEAR      2  -5  72 NW6       30.60S WCI  -9
OFFUTT AFB     CLEAR      2  -5  72 N3        30.59S
PLATTSMOUTH    CLEAR     -1  -6  78 NW3       30.58S
WAHOO          FAIR      -2  -8  78 NW3       30.59S
$$


USA.gov is the U.S. government's official web portal to all federal, state and local government web resources and services.